IRIDIUM 159

Last updated on Sun Jun 21 2026 00:03:14 GMT+0000 (Coordinated Universal Time)

1 43578U 18061K 26171.41558407 .00000069 00000+0 17727-4 0 9996 2 43578 86.3958 55.3567 0002265 84.1741 275.9713 14.34218045413845
UTC large
Height (km)
Speed (km/s)
/
Latitude / Longitude
Inclination (degrees)
Orbital Period (minutes)
Azimuth
Elevation
Range (km)
Doppler Factor

Next 0 passes for location: London (51.5072 / 0.1276)

No passes found over London.
IRIDIUM 159